Flag for Japan Weather past 2 weeks in Sendai, Japan

Now
77 °F

Scattered clouds.


Feels Like: 78 °F
Forecast: 71 / 89 °F
Wind: No wind

Location: Sendai Airport

Current Time: Jul 29, 2015 at 6:52:05 AM

Latest Report: Jul 29, 2015 at 6:00 AM


Visibility: N/A

Pressure: 29.74 "Hg

Humidity: 89%

Dew point: 73 °F

Location of SendaiLocation

Historic Weather in Sendai — Graph

°F

Sendai temperature yesterday

Maximum temperature yesterday: 82 °F (at 11:00 AM)
Minimum temperature yesterday: 77 °F (at 6:00 AM)
Average temperature yesterday: 80 °F

Past Weeks' High & Low Weather Summary

 TemperatureHumidityPressure
High90 °F (Jul 27, 12:00 PM)100% (Jul 14, 6:00 AM)29.95 "Hg (Jul 14, 6:00 AM)
Low72 °F (Jul 14, 6:00 AM)52% (Jul 25, 5:00 PM)29.59 "Hg (Jul 14, 5:00 PM)
Average79 °F81%29.78 "Hg
* Reported Jul 13 9:00 PM — Jul 28 9:00 PM, Sendai, Weather by CustomWeather, © 2015

Note: Actual official high and low records may vary slightly from our data, if they occured in-between our weather recording intervals... More about our weather records

Advertising

Sendai weather history for previous 24 hours

 ConditionsComfort  
Time TempWeatherWind HumidityBarometerVisibility
9:00 PM
Tue, Jul 28
77 °FPartly cloudy.5 mph94%29.74 "HgN/A
8:00 PM77 °FPassing clouds.5 mph94%29.74 "HgN/A
7:00 PM77 °FPartly cloudy.6 mph94%29.71 "Hg5 mi
6:00 PM79 °FPartly sunny.7 mph89%29.71 "HgN/A
5:00 PM81 °FScattered clouds.8 mph84%29.68 "HgN/A
4:00 PM81 °FPassing clouds.9 mph79%29.68 "HgN/A
3:00 PM82 °FPartly sunny.9 mph79%29.68 "HgN/A
2:00 PM82 °FPartly sunny.6 mph74%29.68 "HgN/A
1:00 PM81 °FBroken clouds.5 mph79%29.68 "HgN/A
12:00 PM81 °FPartly sunny.8 mph79%29.71 "HgN/A
11:00 AM82 °FBroken clouds.9 mph79%29.71 "HgN/A
10:00 AM81 °FScattered clouds.10 mph79%29.71 "HgN/A
9:00 AM81 °FScattered clouds.7 mph84%29.71 "HgN/A
8:00 AM81 °FBroken clouds.1 mph84%29.71 "HgN/A
7:00 AM79 °FBroken clouds.3 mph89%29.71 "Hg5 mi
6:00 AM77 °FFog.2 mph94%29.71 "Hg2 mi
Weather by CustomWeather, © 2015

See weather overviewHow to use our weather pages